Flag for Switzerland Weather past 2 weeks in Onex, Geneva, Switzerland

Now
50 °F

Passing clouds.


Feels Like: 50 °F
Forecast: 49 / 68 °F
Wind: 1 mph from North

Location: Geneva Cointrin Airport

Current Time: May 26, 2015 at 6:30:30 AM

Latest Report: May 26, 2015 at 5:50 AM


Visibility: N/A

Pressure: 29.98 "Hg

Humidity: 100%

Dew point: 50 °F

Location of OnexLocation

Historic Weather in Onex — Graph

°F

Onex temperature yesterday

Maximum temperature yesterday: 70 °F (at 3:20 PM)
Minimum temperature yesterday: 54 °F (at 5:20 AM)
Average temperature yesterday: 61 °F

Past Weeks' High & Low Weather Summary

 TemperatureHumidityPressure
High86 °F (May 13, 3:20 PM)100% (May 11, 6:20 AM)30.33 "Hg (May 11, 6:20 AM)
Low45 °F (May 11, 6:20 AM)25% (May 12, 2:50 PM)29.80 "Hg (May 18, 5:20 PM)
Average60 °F62%30.07 "Hg
* Reported May 11 4:20 AM — May 26 4:50 AM, Onex, Weather by CustomWeather, © 2015

Note: Actual official high and low records may vary slightly from our data, if they occured in-between our weather recording intervals... More about our weather records

Advertising

Onex weather history for previous 24 hours

 ConditionsComfort  
Time TempWeatherWind HumidityBarometerVisibility
4:50 AM
Tue, May 26
52 °FPartly cloudy.1 mph100%29.98 "HgN/A
4:20 AM54 °FPassing clouds.1 mph94%29.98 "HgN/A
3:50 AM54 °FPartly cloudy.2 mph100%29.98 "HgN/A
2:50 AM54 °FPartly cloudy.2 mph100%29.98 "HgN/A
2:20 AM54 °FPassing clouds.1 mph94%29.98 "HgN/A
1:50 AM54 °FSprinkles. Partly cloudy.1 mph94%30.01 "HgN/A
1:20 AM54 °FPassing clouds.2 mph88%30.01 "HgN/A
12:50 AM54 °FScattered showers. Passing clouds.1 mph94%30.01 "HgN/A
12:20 AM54 °FPassing clouds.1 mph88%30.01 "HgN/A
11:50 PM
Mon, May 25
54 °FPassing clouds.1 mph94%30.01 "HgN/A
11:20 PM54 °FPassing clouds.1 mph94%30.01 "HgN/A
10:50 PM55 °FPassing clouds.2 mph88%30.01 "HgN/A
10:20 PM57 °FPassing clouds.2 mph82%30.01 "HgN/A
9:50 PM59 °FSprinkles. Partly sunny.5 mph72%29.98 "HgN/A
9:20 PM61 °FSprinkles. Partly sunny.3 mph59%29.98 "HgN/A
8:50 PM61 °FPartly sunny.5 mph63%29.98 "HgN/A
8:20 PM63 °FPartly sunny.6 mph59%29.95 "HgN/A
7:50 PM63 °FPartly sunny.6 mph56%29.95 "HgN/A
7:20 PM64 °FPartly sunny.3 mph52%29.95 "HgN/A
6:50 PM64 °FPartly sunny.6 mph52%29.95 "HgN/A
6:20 PM64 °FScattered showers. More clouds than sun.5 mph56%29.95 "HgN/A
5:50 PM64 °FScattered showers. Mostly cloudy.6 mph56%29.95 "HgN/A
5:20 PM66 °FMostly cloudy.5 mph52%29.95 "HgN/A
4:50 PM66 °FPartly sunny.6 mph56%29.95 "HgN/A
4:20 PM66 °FSprinkles. Broken clouds.7 mph52%29.95 "HgN/A
3:50 PM70 °FBroken clouds.5 mph50%29.95 "HgN/A
3:20 PM70 °FPartly sunny.5 mph43%29.98 "HgN/A
2:50 PM68 °FPartly sunny.2 mph49%29.98 "HgN/A
2:20 PM66 °FPartly sunny.5 mph52%29.98 "HgN/A
1:50 PM66 °FPartly sunny.3 mph56%29.98 "HgN/A
1:20 PM66 °FPartly sunny.3 mph52%30.01 "HgN/A
12:50 PM66 °FPartly sunny.3 mph56%30.01 "HgN/A
12:20 PM66 °FPartly sunny.2 mph52%30.01 "HgN/A
11:50 AM66 °FPartly sunny.5 mph52%30.01 "HgN/A
11:20 AM64 °FPartly sunny.3 mph56%30.01 "HgN/A
10:50 AM64 °FPartly sunny.6 mph56%30.01 "HgN/A
10:20 AM68 °FScattered clouds.2 mph49%30.01 "HgN/A
9:50 AM66 °FPassing clouds.3 mph52%30.01 "HgN/A
9:20 AM66 °FPassing clouds.2 mph56%30.01 "HgN/A
8:50 AM64 °FScattered clouds.1 mph56%30.01 "HgN/A
8:20 AM64 °FScattered clouds.1 mph56%30.04 "HgN/A
7:50 AM61 °FScattered clouds.1 mph72%30.04 "HgN/A
7:20 AM55 °FPartly sunny.1 mph82%30.04 "HgN/A
6:50 AM54 °FClear.1 mph82%30.04 "Hg10 mi
6:20 AM54 °FClear.1 mph82%30.04 "Hg10 mi
Weather by CustomWeather, © 2015

See weather overviewHow to use our weather pages